Wetbulb
58.67 58.26 58.40 57.77 57.99 58.24 58.61 58.83 59.22 59.50 59.92 59.97 60.27 60.85 61.68 62.07 61.54 65.95 63.03 63.24 66.80 71.67 69.91 70.10 69.67 68.76 69.16 68.54 69.44 70.58 62.82 60.28 61.00 62.12 63.01 66.70 65.47 68.19 69.48 68.15 69.42 70.25 70.53 72.85 73.88
58.63 57.67 57.71 57.58 57.90 58.11 58.20 58.53 58.83 59.26 59.47 59.94 60.26 60.76 61.88 62.14 64.23 63.28 64.73 71.73 72.84 72.89 66.35 66.12 66.27 66.63 66.58 66.37 67.97 66.31 61.79 61.07 64.64 65.17 64.88 65.99 66.34 67.01 66.74 67.04 67.15 69.33 71.89 73.60 73.42
58.39 57.94 57.55 57.76 57.83 58.06 57.94 58.14 58.32 58.57 58.97 59.62 60.28 61.18 61.84 62.89 63.51 63.50 73.54 72.77 72.70 72.35 67.85 66.57 67.88 66.28 63.36 64.48 64.93 64.36 61.36 64.04 64.70 65.95 66.80 66.32 66.38 68.12 66.59 63.06 66.70 65.97 70.18 72.32 72.26
58.17 57.56 57.16 57.25 57.58 57.97 58.17 58.01 57.91 57.96 58.15 58.88 60.37 61.57 62.27 64.23 55.38 65.12 74.82 74.76 73.19 68.93 65.81 65.56 66.49 62.78 60.89 59.90 64.36 61.46 62.59 64.04 65.09 66.61 66.28 65.36 67.72 66.79 66.96 67.58 69.63 70.08 71.92 72.03 71.16
57.40 57.26 56.98 56.99 57.36 57.50 57.42 57.50 57.40 57.24 57.77 58.58 60.55 61.80 64.58 60.43 59.89 68.15 72.57 73.74 66.56 64.81 64.12 64.80 63.87 62.07 60.07 60.33 61.84 60.08 60.70 62.91 65.31 65.72 66.64 67.40 66.18 66.15 66.98 69.56 70.52 70.91 70.99 70.96 70.91
56.72 56.62 56.59 56.49 56.84 57.11 57.17 56.91 56.63 56.95 57.51 58.75 60.82 61.58 64.01 56.08 62.53 67.13 67.12 66.70 65.45 64.44 64.30 65.42 64.44 64.34 61.98 60.61 60.25 60.90 61.73 62.37 63.17 63.24 65.02 63.94 64.99 66.83 67.46 70.18 69.62 70.06 69.93 70.70 71.03
56.24 56.41 56.43 56.52 56.60 56.77 56.55 56.24 56.28 56.93 58.09 59.69 61.33 64.12 59.71 57.04 61.91 65.20 66.29 65.36 65.50 64.41 63.41 64.89 66.22 64.22 63.07 60.65 62.20 61.18 59.86 61.82 60.51 61.35 61.74 63.35 62.69 64.09 67.62 69.13 68.89 69.33 70.11 70.56 70.99
56.21 56.36 56.30 56.26 56.38 56.26 55.89 55.66 56.14 57.39 58.99 60.65 62.18 64.33 57.81 61.00 62.56 62.84 66.62 64.75 65.30 64.59 64.02 65.45 66.70 64.93 62.67 63.35 62.19 59.60 60.00 57.43 59.81 59.50 60.50 62.50 58.88 64.59 68.51 68.70 68.01 68.69 69.32 69.69 70.33
56.13 56.18 56.06 55.94 55.96 55.83 55.38 55.24 56.89 59.64 60.98 62.35 64.38 62.68 56.73 62.17 58.18 63.20 65.40 62.32 63.13 63.42 63.43 64.16 63.91 62.46 62.33 59.07 58.10 58.73 55.24 55.52 55.99 59.37 58.41 59.19 57.68 63.30 67.68 67.62 67.48 68.66 69.12 69.58 69.72
56.55 55.93 55.52 56.05 55.51 55.38 54.86 54.74 58.52 60.14 62.25 64.49 62.88 59.54 60.37 56.31 60.02 62.84 65.09 63.53 61.08 60.61 59.83 60.18 60.75 58.83 59.24 57.88 53.08 54.96 54.60 55.10 54.81 57.29 57.71 57.05 57.00 59.03 64.69 65.73 66.43 68.09 69.07 69.38 69.60
56.34 56.16 56.07 55.47 55.55 54.74 55.92 61.66 60.68 60.70 62.47 58.83 57.55 58.19 58.60 61.67 63.03 62.01 63.82 62.13 61.44 59.29 55.62 59.04 56.28 54.56 56.35 58.40 58.05 55.12 54.74 54.71 56.55 57.91 56.99 56.90 57.00 58.45 60.42 62.63 64.60 66.69 68.47 69.30 69.67
56.35 55.99 55.67 55.10 54.85 54.47 56.89 59.86 60.47 61.73 58.54 59.98 57.62 58.89 60.55 61.78 58.76 61.15 63.72 58.95 57.97 55.41 57.72 57.07 53.78 56.95 57.72 57.45 55.74 55.13 54.39 54.81 56.13 57.49 57.08 56.99 56.31 58.84 59.76 60.69 62.70 65.56 66.82 68.69 69.93
55.94 55.67 55.37 55.07 54.14 55.12 60.69 60.61 61.66 63.65 59.12 58.47 60.16 59.57 60.04 61.31 59.01 59.51 61.56 60.08 57.50 55.52 55.58 53.98 55.32 56.44 55.16 55.14 53.48 53.62 53.72 54.94 53.97 56.14 57.77 56.92 56.18 57.35 60.06 61.34 62.53 64.38 66.16 68.21 69.48
55.29 55.21 54.70 54.01 51.48 62.77 60.49 63.71 61.78 63.31 56.16 55.94 57.69 59.30 60.73 61.03 57.64 61.86 62.45 59.97 57.05 54.84 54.71 54.19 56.13 54.09 53.62 52.72 53.95 52.11 56.83 55.10 54.41 54.32 51.47 56.58 50.02 57.60 58.24 59.26 61.28 62.42 64.94 66.42 68.90
54.86 54.43 54.04 52.11 60.84 60.55 63.46 64.93 64.37 62.88 49.24 57.60 58.09 63.39 61.26 59.10 59.71 58.73 62.35 59.72 56.14 54.71 55.44 54.31 53.53 53.38 53.23 53.72 55.04 53.92 56.96 55.68 55.47 54.24 54.18 54.29 51.67 55.78 58.63 57.39 59.61 61.93 62.73 65.74 68.71
54.09 53.67 53.55 55.41 60.52 65.50 65.46 63.83 63.03 54.27 49.08 54.77 57.43 56.52 56.97 58.61 57.94 59.57 58.91 60.91 60.20 56.47 56.25 55.95 57.81 56.34 55.93 56.67 56.59 57.01 55.62 56.20 56.48 55.34 50.56 52.91 51.05 54.16 56.09 57.44 60.39 63.06 62.99 64.88 67.32
52.82 52.65 53.82 62.23 63.12 65.61 65.68 62.13 54.00 51.17 58.30 54.54 55.57 56.66 56.64 55.59 56.44 57.20 56.50 56.13 55.55 53.86 54.29 56.60 56.59 58.08 57.52 55.14 57.18 56.12 54.15 50.45 49.99 49.90 49.61 54.42 51.32 55.16 57.74 59.09 61.03 62.43 63.47 65.57 67.58
51.37 51.41 55.44 62.56 66.12 64.99 63.22 57.97 51.95 54.51 55.08 58.18 57.29 56.76 55.00 56.55 56.57 56.79 56.37 55.27 57.74 56.28 54.37 53.26 51.62 55.79 58.16 56.45 55.82 55.59 54.52 51.14 46.64 47.54 50.86 54.85 51.09 53.98 58.40 60.67 61.89 64.62 65.27 65.57 67.38
50.61 60.02 63.05 64.87 64.60 65.24 60.43 53.91 54.05 55.66 57.28 56.10 56.75 54.96 54.64 56.06 55.93 55.56 55.61 55.88 57.08 58.13 54.16 53.60 53.00 57.31 57.38 58.44 57.99 55.91 53.44 56.99 52.29 52.84 50.52 51.92 55.06 57.48 58.75 59.94 61.25 62.14 64.65 66.40 66.92
63.13 63.95 64.10 65.34 65.64 62.94 58.90 53.23 57.62 59.15 58.51 58.23 54.28 56.35 54.38 55.21 54.89 55.23 55.74 58.12 57.33 58.90 59.98 56.87 52.81 57.35 57.59 58.32 58.28 56.82 58.16 52.79 53.37 47.89 47.12 50.70 52.67 53.11 57.13 58.19 60.17 61.62 63.17 64.96 67.51
62.96 61.17 63.67 65.90 65.09 60.70 55.62 57.11 57.74 59.47 59.50 57.35 56.26 55.32 56.21 55.37 56.28 55.62 55.99 57.51 58.12 58.13 59.70 58.64 56.31 55.38 57.58 56.23 55.34 55.91 55.08 55.63 54.93 53.10 48.81 47.69 50.70 58.71 58.08 60.67 60.81 62.79 64.90 66.62 68.01
65.55 58.00 63.87 64.95 57.66 58.86 57.07 58.48 53.26 58.37 59.69 58.71 59.41 58.37 56.58 56.37 55.94 55.49 54.91 56.94 57.85 58.46 55.99 58.73 56.22 52.62 54.42 58.31 59.55 58.09 56.43 55.70 51.53 51.58 53.34 51.94 52.79 59.79 60.51 62.24 63.88 64.87 66.20 67.83 68.60
62.94 59.78 63.76 63.11 55.89 55.78 59.40 57.54 58.04 57.94 58.02 57.90 57.05 58.75 58.76 57.28 54.85 56.30 56.19 57.73 57.10 56.77 56.30 57.37 53.71 49.66 51.00 54.39 57.20 55.43 57.00 56.88 56.36 55.34 52.31 49.67 51.28 61.65 62.76 63.33 64.49 65.32 66.70 68.12 68.57
62.70 57.29 59.55 60.53 61.65 58.62 57.05 56.84 55.93 57.85 57.53 58.73 58.19 58.89 57.51 56.03 57.51 55.86 55.71 56.77 56.31 55.78 58.31 56.85 51.98 50.57 47.54 50.57 53.15 51.80 53.54 56.10 54.47 51.23 51.96 52.01 53.44 56.61 59.59 61.78 63.88 65.62 66.92 67.74 68.33
63.65 60.55 60.95 56.60 57.10 57.69 57.93 57.28 55.54 55.11 57.70 58.79 57.26 56.66 55.90 54.17 54.62 54.11 54.58 54.82 55.31 54.69 55.04 54.37 50.61 52.34 52.15 52.04 51.85 50.67 49.82 50.24 49.82 50.71 48.48 50.58 51.05 54.48 56.99 62.24 64.26 65.69 66.27 66.61 66.82
60.56 60.12 62.59 61.31 59.25 57.87 52.96 56.00 54.82 55.48 56.63 55.70 55.70 55.10 55.10 53.79 54.10 52.86 53.32 54.41 53.74 55.88 54.96 55.13 50.79 51.63 49.66 51.31 51.27 49.08 50.37 50.28 50.07 50.00 50.01 50.67 50.95 60.05 62.17 63.39 63.53 64.51 64.89 64.82 65.20
60.42 63.58 61.61 54.49 57.91 57.33 58.08 56.46 55.44 56.23 56.28 57.00 56.01 55.12 54.18 55.16 56.05 56.45 56.44 55.90 55.12 53.96 53.53 53.07 51.57 50.34 47.74 51.16 50.42 48.00 51.67 51.90 52.03 53.33 54.37 51.21 58.23 61.14 60.62 60.88 62.28 62.39 63.12 63.01 63.47
MSLP
1017.50 1017.26 1017.01 1016.82 1016.63 1016.40 1016.14 1015.86 1015.55 1015.17 1014.78 1014.34 1013.91 1013.51 1013.03 1012.48 1011.40 1010.59 1008.29 1008.16 1007.71 1007.77 1007.67 1005.81 1004.93 1003.97 1003.37 1002.85 1003.20 1002.96 1002.67 1002.84 1003.39 1003.70 1004.79 1005.49 1005.05 1005.49 1005.23 1005.23 1004.99 1005.05 1004.97 1005.87 1007.57
1017.48 1017.21 1016.96 1016.75 1016.53 1016.27 1016.03 1015.77 1015.52 1015.22 1014.78 1014.31 1013.81 1013.33 1012.91 1012.50 1010.65 1008.32 1008.26 1007.91 1007.91 1007.84 1006.92 1005.04 1003.83 1003.36 1002.18 1002.33 1002.79 1002.05 1002.55 1003.44 1003.67 1003.72 1004.39 1005.08 1004.91 1005.10 1005.04 1004.81 1004.80 1005.06 1005.94 1006.92 1007.83
1017.44 1017.19 1016.93 1016.69 1016.43 1016.17 1015.91 1015.67 1015.39 1015.11 1014.75 1014.26 1013.77 1013.24 1012.76 1012.23 1009.36 1006.90 1007.94 1007.94 1007.94 1007.84 1006.72 1005.36 1004.34 1003.13 1001.88 1001.90 1002.35 1002.62 1003.07 1003.40 1003.54 1004.20 1004.13 1004.58 1004.90 1004.93 1004.39 1005.52 1005.30 1005.80 1005.67 1007.01 1007.60
1017.34 1017.15 1016.88 1016.63 1016.35 1016.10 1015.83 1015.53 1015.29 1015.04 1014.68 1014.25 1013.66 1013.03 1012.54 1011.18 1007.66 1007.14 1007.81 1007.84 1007.89 1007.45 1006.24 1004.84 1003.77 1002.48 1002.01 1001.73 1002.47 1002.59 1003.34 1003.51 1003.68 1003.84 1004.00 1004.09 1004.67 1004.48 1004.55 1004.55 1004.94 1004.89 1005.45 1006.74 1007.32
1017.35 1017.15 1016.88 1016.57 1016.25 1015.96 1015.73 1015.42 1015.16 1014.89 1014.55 1014.11 1013.60 1013.09 1011.71 1009.19 1006.51 1006.83 1007.46 1007.65 1007.45 1006.97 1005.62 1004.42 1003.49 1002.97 1002.02 1002.18 1002.38 1002.75 1003.06 1003.16 1003.30 1003.54 1003.63 1003.94 1004.06 1004.21 1004.22 1004.54 1004.99 1005.13 1005.74 1006.52 1006.95
1017.28 1017.05 1016.80 1016.52 1016.17 1015.84 1015.56 1015.30 1015.01 1014.74 1014.40 1013.94 1013.46 1013.08 1011.20 1007.74 1006.44 1006.34 1006.55 1006.86 1006.21 1006.02 1004.98 1004.57 1003.71 1003.90 1003.03 1002.54 1002.52 1002.92 1002.98 1002.84 1002.82 1002.85 1002.96 1003.18 1003.28 1003.74 1003.82 1004.12 1004.63 1005.15 1005.59 1006.22 1006.67
1017.18 1016.88 1016.64 1016.41 1016.07 1015.73 1015.44 1015.18 1014.88 1014.55 1014.18 1013.74 1013.38 1012.57 1009.46 1006.56 1006.43 1006.40 1006.36 1005.87 1005.72 1005.40 1004.64 1004.54 1004.50 1003.93 1003.13 1002.40 1003.00 1002.74 1002.42 1002.53 1002.80 1002.76 1002.51 1002.64 1002.42 1002.78 1003.19 1003.67 1004.20 1004.70 1005.31 1005.86 1006.45
1017.04 1016.73 1016.47 1016.22 1015.92 1015.59 1015.32 1014.99 1014.60 1014.26 1013.84 1013.45 1013.24 1011.67 1007.47 1006.28 1006.42 1006.46 1006.04 1005.86 1005.88 1005.60 1005.35 1005.06 1004.83 1004.24 1003.46 1003.10 1002.56 1002.27 1002.10 1001.54 1002.51 1002.69 1002.51 1002.19 1001.32 1002.19 1002.93 1003.34 1003.49 1003.98 1004.76 1005.52 1006.05
1016.84 1016.55 1016.28 1016.01 1015.74 1015.43 1015.13 1014.73 1014.16 1013.79 1013.50 1013.14 1012.36 1010.11 1006.15 1007.30 1006.44 1005.77 1005.69 1005.25 1005.37 1005.36 1005.44 1005.61 1004.99 1003.73 1002.90 1002.60 1001.29 1001.39 1000.88 1001.45 1001.94 1002.43 1002.35 1001.96 1001.46 1001.32 1002.19 1002.60 1002.73 1003.37 1004.08 1004.97 1005.66
1016.61 1016.33 1016.08 1015.80 1015.53 1015.20 1014.83 1014.52 1013.89 1013.49 1013.00 1011.67 1010.45 1008.83 1006.19 1005.21 1005.11 1005.29 1005.47 1005.28 1004.98 1004.92 1005.08 1005.04 1004.23 1003.15 1002.50 1001.63 1000.41 1000.87 1001.24 1001.53 1001.62 1001.89 1002.02 1001.37 1000.91 1000.50 1000.80 1001.64 1001.93 1002.38 1003.09 1004.18 1004.89
1016.32 1016.04 1015.81 1015.56 1015.36 1015.08 1014.18 1013.28 1012.80 1011.41 1009.91 1007.26 1006.34 1005.74 1005.11 1005.10 1005.45 1005.17 1005.29 1005.12 1004.85 1004.67 1004.13 1003.79 1003.20 1002.15 1001.34 1001.15 1001.66 1002.34 1002.18 1001.69 1001.43 1001.67 1001.91 1001.14 1000.64 1000.06 999.97 1000.17 1001.06 1001.56 1002.09 1002.73 1003.76
1015.99 1015.73 1015.50 1015.31 1015.17 1015.05 1014.55 1010.33 1008.17 1007.92 1006.53 1006.39 1005.96 1005.65 1005.20 1004.70 1004.52 1004.52 1004.94 1004.67 1004.32 1003.70 1003.46 1002.92 1002.54 1002.02 1001.72 1002.21 1002.68 1002.35 1001.86 1001.39 1001.12 1001.35 1001.18 1000.32 999.96 999.34 999.07 999.27 999.80 1000.55 1001.00 1001.63 1002.45
1015.68 1015.41 1015.20 1015.08 1014.99 1014.62 1011.32 1008.66 1008.24 1007.64 1005.77 1005.20 1004.92 1004.55 1004.56 1004.72 1003.41 1003.67 1004.61 1004.18 1003.60 1003.24 1002.70 1002.46 1001.51 1002.42 1002.47 1002.40 1002.27 1001.84 1001.45 1000.92 1001.27 1001.32 1000.19 999.82 998.63 998.87 998.98 999.37 999.48 999.72 999.98 1000.47 1001.20
1015.35 1015.11 1014.97 1014.87 1015.02 1010.23 1009.33 1008.24 1008.20 1007.84 1004.77 1004.26 1004.10 1003.86 1004.28 1004.02 1003.29 1003.39 1003.99 1003.68 1003.41 1002.75 1002.58 1002.19 1001.85 1002.23 1002.38 1001.99 1001.77 1000.77 1000.69 1001.24 1001.45 1000.96 999.72 999.21 998.24 998.57 998.85 998.74 998.64 998.45 999.02 999.52 1000.34
1014.98 1014.81 1014.72 1015.01 1012.33 1009.20 1008.16 1007.98 1007.89 1007.65 1003.32 1002.67 1003.07 1003.93 1003.28 1003.14 1002.84 1003.46 1003.76 1003.70 1002.81 1002.49 1002.82 1001.46 1001.85 1002.10 1001.91 1001.45 1001.38 1000.91 1001.31 1001.22 1001.08 1000.48 999.48 997.73 997.73 998.36 998.40 998.05 998.05 997.79 997.78 998.46 999.57
1014.58 1014.50 1014.57 1013.96 1012.03 1008.58 1008.39 1008.07 1007.48 1005.70 1001.79 1002.09 1002.64 1003.03 1002.83 1002.80 1002.33 1003.09 1003.58 1003.66 1002.82 1002.60 1002.41 1001.86 1001.80 1001.77 1001.39 1001.40 1001.44 1001.49 1001.25 1000.63 999.92 998.90 997.83 997.80 997.85 996.92 997.79 998.30 998.16 998.05 998.04 998.33 999.12
1014.08 1014.10 1014.20 1011.07 1008.31 1008.38 1008.22 1007.45 1005.24 1002.25 1000.93 1001.42 1001.41 1001.92 1001.74 1001.74 1001.95 1002.64 1002.91 1002.93 1001.91 1001.49 1000.91 1000.79 1000.64 1000.90 1001.48 1001.15 1001.10 1001.25 1000.56 998.70 998.06 997.77 996.90 997.91 997.96 997.08 998.05 998.38 998.10 998.15 998.35 998.67 999.07
1013.46 1013.50 1012.40 1010.45 1008.95 1008.64 1007.85 1006.04 1002.89 1000.55 1000.17 1000.30 1000.51 1001.10 1000.81 1001.13 1001.26 1001.65 1001.88 1001.56 1001.73 1001.51 1000.58 999.52 999.67 1000.20 1000.54 1000.76 999.82 999.93 999.66 998.51 997.54 997.04 997.40 997.72 997.31 997.27 998.04 998.28 998.27 998.24 998.53 998.98 999.18
1013.76 1012.13 1009.88 1008.72 1009.21 1008.74 1006.77 1003.86 1001.01 1000.47 1000.10 1000.15 1000.33 1000.23 1000.27 1000.76 1000.91 1001.36 1001.44 1000.89 1001.33 1001.69 1001.17 1000.03 999.65 1000.38 1000.45 1000.25 1000.30 999.55 999.67 998.93 998.35 997.80 997.40 996.95 996.95 997.07 997.74 997.73 997.89 998.45 998.88 999.23 999.49
1011.74 1008.88 1007.79 1008.10 1008.40 1007.98 1005.78 1002.52 1001.26 1001.47 1001.29 1000.50 999.81 999.79 999.67 1000.32 1000.92 1001.01 1001.27 1002.34 1002.22 1002.88 1002.64 1001.16 1000.47 999.94 1000.04 1000.54 1000.22 999.99 999.62 999.29 998.52 998.15 997.76 997.24 998.00 996.81 997.28 997.53 998.22 998.76 999.38 1000.03 1000.08
1011.19 1006.81 1007.43 1007.71 1007.89 1006.55 1003.64 1001.79 1002.08 1002.18 1001.97 1000.66 999.86 999.97 999.68 1000.24 1000.59 1000.63 1001.18 1002.83 1003.36 1002.96 1003.11 1002.14 1001.43 1000.30 1000.10 999.72 999.07 999.41 999.61 999.50 999.03 998.78 998.15 997.66 997.67 998.35 998.46 998.46 999.30 999.93 1000.85 1001.26 1001.29
1009.02 1005.41 1006.89 1007.18 1006.27 1004.42 1002.53 1002.51 1003.11 1002.05 1002.20 1001.46 1001.06 1000.43 1000.67 1001.26 1001.18 1001.59 1002.03 1002.92 1004.38 1004.04 1003.38 1002.86 1002.51 1000.80 999.90 999.39 999.28 999.67 999.91 1000.00 999.32 998.93 998.77 998.82 998.06 997.87 998.91 999.56 1000.43 1001.57 1002.16 1002.72 1002.79
1007.55 1006.17 1006.54 1006.36 1004.22 1003.13 1003.06 1003.07 1002.82 1002.44 1002.37 1002.10 1001.99 1002.06 1002.31 1002.07 1002.44 1002.78 1003.19 1004.68 1005.26 1004.78 1004.72 1004.32 1003.17 1001.54 1000.14 999.22 998.84 999.52 1000.13 999.91 1000.24 999.96 999.44 999.14 998.37 998.81 1000.16 1001.11 1001.70 1002.31 1003.15 1003.52 1003.83
1007.38 1005.18 1005.53 1005.52 1004.23 1002.78 1002.83 1002.84 1003.13 1003.61 1003.33 1003.15 1003.04 1002.98 1002.94 1002.85 1003.21 1003.19 1003.66 1004.64 1005.79 1005.71 1006.58 1006.44 1004.29 1003.03 1001.71 1000.69 1000.85 1000.92 1001.09 1001.23 1000.99 1000.50 999.96 999.58 999.04 999.36 1001.47 1002.80 1002.78 1003.39 1004.01 1004.46 1004.79
1007.47 1005.02 1004.99 1003.96 1003.78 1003.32 1003.18 1003.17 1003.03 1003.46 1003.96 1003.96 1003.92 1003.74 1003.76 1003.59 1003.43 1003.68 1004.08 1004.60 1005.13 1006.47 1006.71 1005.90 1004.44 1003.82 1003.09 1002.70 1002.39 1002.11 1002.01 1001.89 1001.74 1001.66 1001.34 1001.06 1000.86 1000.86 1001.12 1002.71 1003.85 1004.47 1005.01 1005.29 1005.72
1008.85 1007.41 1005.94 1004.97 1004.97 1004.37 1004.16 1003.92 1003.72 1004.06 1004.61 1004.02 1004.51 1004.75 1005.09 1004.82 1004.69 1004.71 1005.01 1005.18 1005.45 1005.77 1006.14 1005.61 1005.20 1005.00 1004.18 1003.70 1003.08 1002.59 1002.45 1002.27 1002.15 1002.17 1002.11 1002.09 1002.07 1002.55 1002.96 1003.83 1004.72 1005.43 1005.76 1006.37 1006.75
1010.47 1009.00 1007.85 1006.16 1004.95 1004.52 1003.97 1004.47 1004.81 1005.64 1006.07 1005.85 1005.86 1005.94 1005.65 1005.98 1006.41 1006.38 1006.16 1005.95 1005.93 1006.16 1006.22 1006.22 1005.69 1005.25 1004.21 1003.70 1003.58 1003.17 1002.35 1002.50 1002.52 1003.10 1003.04 1003.17 1004.03 1004.86 1005.04 1005.53 1005.87 1006.62 1006.84 1007.37 1007.54
Wind_Speed
10 11 11 10 11 11 12 12 12 13 14 14 15 15 14 15 20 8 8 6 3 5 6 13 10 7 11 6 2 7 3 9 10 10 8 6 4 5 4 3 5 3 9 17 18
10 10 11 10 11 11 12 12 12 12 13 14 15 16 14 14 13 14 4 4 4 4 12 8 9 9 5 5 2 7 9 7 9 11 9 5 4 4 4 9 2 10 11 16 18
11 10 11 11 11 12 12 12 13 13 14 15 15 16 15 17 13 8 4 3 3 6 14 11 12 11 2 3 5 6 7 4 9 10 7 7 4 3 6 10 7 13 13 15 17
11 10 11 11 12 12 13 12 13 13 14 15 16 16 16 11 4 8 2 4 6 10 13 12 12 11 3 5 5 4 6 5 5 4 1 2 3 4 5 6 6 1 14 15 16
12 12 11 12 12 12 12 13 13 13 14 15 16 15 12 11 7 10 5 5 11 11 12 8 11 5 5 5 1 7 6 3 2 1 2 2 2 2 3 3 5 6 10 14 15
13 12 11 12 12 12 12 12 13 14 14 15 15 16 11 15 6 4 1 8 10 11 8 8 7 8 10 3 7 4 5 3 4 4 2 3 1 4 7 8 8 9 11 13 14
13 13 12 12 12 12 12 13 14 14 14 14 12 8 11 6 3 2 6 8 7 10 10 2 8 12 7 7 4 4 4 5 7 6 4 11 9 7 5 8 10 10 11 12 12
13 13 13 12 12 12 13 14 15 14 14 13 9 11 9 4 4 7 7 7 6 6 9 5 8 12 10 8 13 8 9 6 9 5 3 10 7 8 6 9 10 11 12 12 14
13 13 13 12 12 12 12 15 16 13 10 8 9 10 6 5 10 12 10 9 9 8 6 5 12 14 9 13 15 8 8 6 1 4 6 5 8 7 11 10 10 11 14 13 14
12 12 12 11 11 11 13 12 7 5 8 9 9 9 7 10 10 9 10 6 8 8 10 11 12 14 14 11 7 8 5 1 5 3 8 11 8 8 14 10 11 12 13 15 16
12 11 10 10 9 10 13 6 8 9 14 8 9 4 7 7 6 11 11 12 10 8 13 13 13 13 13 3 13 8 10 10 7 6 9 11 14 11 10 13 10 11 14 17 17
12 11 9 9 8 7 9 10 9 8 6 14 5 5 3 5 9 11 11 11 11 13 14 11 12 14 8 6 7 12 12 12 2 4 10 12 13 14 5 8 10 14 14 15 18
12 10 8 6 5 6 12 9 6 7 10 9 10 10 11 11 8 15 13 13 8 11 10 13 5 6 7 9 13 14 15 11 9 12 20 8 8 3 6 2 5 9 13 16 17
12 10 7 4 4 6 11 10 7 5 8 11 11 8 7 9 7 3 13 8 5 10 10 10 10 5 8 10 8 15 6 3 8 13 11 11 7 11 6 7 10 12 13 13 16
11 8 6 12 12 7 9 4 5 5 8 12 11 7 11 13 12 10 9 8 13 8 8 6 5 8 10 8 6 12 5 9 11 14 16 15 7 11 9 2 7 5 2 14 15
11 6 5 7 8 6 3 3 7 9 3 9 9 12 14 13 8 11 11 9 5 8 10 11 4 6 8 5 7 10 8 16 19 15 13 10 9 11 10 6 8 5 3 5 12
10 9 9 9 2 3 4 6 9 10 11 10 14 16 17 10 10 13 14 14 11 12 13 15 16 15 9 12 10 11 14 12 8 8 4 10 7 4 9 6 8 5 4 5 10
8 12 14 10 3 7 7 10 11 4 10 10 12 15 13 13 11 11 12 12 10 7 9 10 10 7 8 13 10 13 15 11 5 8 2 8 3 7 7 4 4 9 6 3 7
3 7 8 7 8 5 8 12 6 5 5 11 10 13 7 9 5 9 10 4 9 8 13 6 5 7 6 10 7 7 8 12 11 14 9 9 10 10 10 9 7 10 9 6 3
6 8 6 7 7 7 9 15 4 7 5 10 14 14 11 14 10 8 8 4 2 3 7 4 10 9 8 6 13 14 14 11 9 10 9 3 8 5 10 6 7 9 11 10 8
8 6 8 8 6 8 11 3 3 5 8 6 6 6 5 5 8 4 5 8 2 1 6 12 11 11 7 13 15 11 14 13 13 10 13 12 4 5 5 9 7 11 11 11 12
9 3 9 7 9 10 11 2 4 6 5 2 7 7 2 2 4 3 4 7 3 6 10 8 10 13 16 16 10 8 13 16 14 13 11 8 16 13 5 13 10 11 9 9 11
7 6 6 8 8 8 5 7 3 7 2 3 2 5 2 1 5 4 2 8 3 6 9 12 8 11 12 15 20 7 12 7 13 16 16 15 12 13 10 8 9 10 9 9 11
7 6 6 9 10 14 9 10 8 2 3 2 1 3 5 6 4 3 7 8 1 5 7 5 13 15 13 18 16 13 12 14 15 13 14 15 19 5 12 8 8 10 10 10 10
4 5 6 7 8 6 2 2 6 8 2 2 3 5 5 5 5 8 2 5 8 10 6 9 12 13 14 16 16 18 18 18 19 19 20 19 22 21 20 9 8 8 9 10 11
8 7 1 3 3 7 6 6 6 5 7 6 9 4 4 6 6 9 2 6 7 3 7 8 11 9 15 16 18 16 16 17 17 17 18 18 17 14 14 10 8 11 10 11 11
6 2 6 5 5 8 1 4 0 3 2 6 5 6 7 8 6 9 9 10 9 8 10 11 11 11 12 12 8 14 8 8 7 8 10 10 11 13 13 12 8 8 9 9 10
Wind_Direction
351 350 348 342 338 336 332 331 330 331 330 326 323 321 318 314 301 227 264 22 347 287 282 272 244 258 237 129 257 236 321 58 47 45 89 121 207 173 240 226 253 89 42 119 141
348 350 344 342 336 332 330 328 328 329 326 324 321 319 316 319 285 258 72 60 321 270 256 290 325 300 186 157 67 331 58 33 17 48 81 118 339 155 192 243 112 146 98 122 153
345 345 339 339 334 330 327 326 327 327 326 323 320 316 313 312 268 98 47 354 282 257 270 294 282 273 272 294 46 38 37 3 61 32 32 73 186 259 264 25 246 191 132 151 165
338 341 336 335 331 329 326 324 323 323 321 320 319 315 313 267 265 82 24 262 235 268 275 273 261 278 318 26 70 82 47 10 16 87 338 49 70 246 325 53 29 7 131 160 171
337 335 332 330 327 326 323 320 318 317 316 315 315 317 297 229 251 121 170 145 201 240 262 293 277 298 338 333 143 29 28 344 61 60 305 86 253 320 259 187 138 120 148 165 181
331 329 328 325 322 321 317 316 312 310 308 307 310 313 246 253 75 72 132 175 217 229 245 254 324 2 293 330 351 359 330 26 32 46 180 275 250 256 132 149 152 157 164 168 186
329 326 323 321 317 317 313 310 304 301 298 297 301 291 262 250 29 152 198 209 211 243 262 221 304 284 357 277 19 320 266 169 40 12 12 311 227 182 134 161 162 172 171 165 183
326 322 319 317 314 314 310 306 298 292 287 280 282 265 269 54 293 214 203 198 218 234 274 346 283 280 270 327 255 228 232 230 88 333 31 298 114 112 153 184 182 179 172 173 178
321 318 315 312 309 308 305 301 289 278 251 257 240 234 224 131 209 206 202 203 194 220 228 297 260 268 279 238 244 180 259 55 186 76 315 297 319 153 168 197 211 185 172 182 177
317 314 312 306 305 304 301 287 309 245 216 222 267 253 221 207 167 173 199 243 212 207 225 229 236 246 219 247 295 352 329 301 331 34 318 297 280 288 157 199 217 191 191 186 182
313 305 299 300 298 304 302 197 202 190 219 294 149 292 126 115 162 194 186 213 233 219 227 197 235 234 241 311 3 319 273 285 287 52 290 302 297 287 264 180 212 220 199 186 198
312 305 297 292 289 300 277 248 25 346 225 217 228 260 245 193 183 187 191 217 207 234 210 219 227 255 298 334 269 267 263 265 311 255 298 293 296 269 279 237 197 200 224 208 188
314 306 294 286 292 243 235 249 332 310 259 160 197 205 180 214 213 175 199 218 239 233 219 255 315 7 303 249 246 246 261 285 335 318 279 248 274 152 139 184 200 228 214 209 201
313 304 285 259 260 193 219 209 238 293 259 137 186 202 176 232 208 120 188 230 229 260 228 263 255 212 243 248 246 265 217 319 285 285 312 304 294 121 158 204 204 212 197 215 200
314 296 260 233 322 217 61 225 230 239 245 140 132 105 192 220 116 175 189 206 256 201 252 103 225 212 243 252 237 275 24 293 285 273 276 267 246 126 186 35 349 352 238 178 191
311 277 220 192 230 317 265 168 212 232 181 147 136 177 176 217 176 138 178 253 296 245 223 279 225 246 271 250 249 276 280 259 243 247 253 80 294 157 106 27 13 14 175 160 177
303 238 218 314 62 132 242 212 221 259 131 149 175 162 192 180 151 173 196 200 231 214 209 196 214 205 228 248 209 230 252 261 222 243 106 90 281 95 98 49 15 50 130 167 164
307 167 211 274 314 269 213 227 255 47 203 146 149 176 207 165 164 189 179 217 211 285 295 282 158 174 176 234 264 201 251 297 317 313 40 166 244 92 80 145 35 84 76 148 188
144 202 195 169 218 242 240 226 244 204 75 179 184 189 172 177 279 214 231 313 37 348 315 324 150 125 210 203 251 170 243 274 314 288 238 255 128 195 148 194 119 88 73 101 211
260 204 142 149 181 232 245 260 72 359 295 278 197 215 180 180 217 226 169 76 99 328 304 349 287 180 114 235 237 265 314 284 239 260 286 60 279 197 185 118 56 63 63 43 43
251 202 124 169 211 234 238 107 145 148 263 282 266 191 297 142 277 173 93 100 275 38 296 308 288 279 185 227 257 178 230 223 253 289 310 292 67 39 264 86 57 54 36 28 26
273 190 142 192 221 229 248 51 8 154 197 203 319 351 334 103 232 257 294 73 25 319 298 355 311 293 291 300 285 271 289 293 282 277 262 298 300 101 55 77 64 61 36 39 23
260 101 166 222 244 200 98 153 311 201 239 204 162 322 309 268 291 264 30 96 359 305 357 2 272 289 269 244 218 213 273 247 282 284 283 291 280 104 74 63 71 64 32 42 28
280 164 154 210 274 288 160 189 145 7 112 2 98 262 242 236 186 296 240 140 275 335 26 303 267 264 284 310 325 307 291 278 289 281 288 283 299 326 110 314 14 42 30 25 32
255 30 10 202 192 265 223 164 206 169 164 262 174 298 318 289 253 243 281 278 195 121 233 253 279 291 291 300 298 291 284 280 273 276 276 290 295 301 315 69 21 31 21 25 27
323 332 221 353 149 254 142 208 246 108 299 164 273 111 296 282 329 330 317 273 282 142 253 280 284 278 280 276 261 274 284 280 279 277 273 277 278 1 11 31 23 10 24 18 13
0 316 279 119 237 235 68 82 255 27 126 13 346 279 225 28 7 325 305 295 279 266 280 283 285 285 281 292 307 271 307 309 293 317 314 299 36 18 351 0 18 2 15 14 6